Terminal Aerodrome Forecast
Issued by NWS

Home | Current Version | Previous Version | Text Only | Print | Product List | Glossary On
Versions: 1 2 3 4 5 6 7 8 9 10 11 12 13 14 15 16 17 18 19 20 21 22 23 24 25 26 27 28 29 30 31 32 33 34 35 36 37 38 39 40 41 42 43 44 45 46 47 48 49 50
000
FTUS41 KCTP 271720
TAFBFD
TAF
KBFD 271720Z 2718/2818 33013G17KT 6SM -SHSN FEW014 BKN035 OVC040
     FM271900 34010G17KT P6SM VCSH BKN018
     FM280100 33006KT P6SM OVC050
     FM280800 32004KT P6SM BKN015
     FM281100 31004KT P6SM SCT250=

USA.gov is the U.S. government's official web portal to all federal, state and local government web resources and services.